Terug naar catalogus

INTELSAT 3-F7

ActiefCommunicatieGEO
NORAD 4376·PAYLOAD· XX

Gelanceerd Apr 23, 1970 vanaf Cape Canaveral Space Force Station

Loading…

TLE

VersSource: Space-Track

Epoch: Sep 13, 2026, 20:48 UTC

1  4376U 70032A   26256.86723715 -.00000276  00000-0  00000+0 0  9997
2  4376   2.6502  86.0061 0002916 198.5370 161.9945  1.00280875 48254

Volg INTELSAT 3-F7 in realtime met AllMySat

Download on the App Store